Wind_Speed
17 19 21 22 24 25 27 29 32 34 37 40 41 42 43 45 46 47 47 49 50 51 52 54 56 58 60 63 65 67 68 68 68 67 66 65 63 60 58 56 53 50 47 44
19 21 24 25 26 28 30 32 34 37 39 40 42 44 44 45 47 48 50 52 54 56 58 61 63 65 68 70 72 74 74 75 76 75 74 72 70 67 65 63 60 56 52 49
22 24 26 28 28 30 32 34 36 38 40 42 43 44 46 49 52 55 57 60 62 65 67 69 71 74 76 78 80 81 82 82 83 82 81 78 76 73 71 69 66 62 56 51
24 26 28 29 30 32 34 34 36 39 42 44 47 50 53 56 59 61 64 67 70 73 75 76 77 79 80 81 82 83 83 83 84 84 83 81 80 78 76 73 69 65 58 52
26 28 31 30 32 34 36 38 41 43 46 50 53 56 59 63 66 69 72 74 75 75 75 74 73 72 71 71 70 71 72 73 73 73 73 73 72 72 70 68 65 61 56 52
28 29 32 35 36 38 41 44 47 50 53 56 60 63 65 69 72 74 74 73 70 67 64 60 57 55 53 51 50 51 51 52 53 53 53 54 55 55 56 56 56 54 52 49
29 32 34 36 39 41 44 48 52 55 59 62 66 69 71 73 73 71 67 62 57 52 47 43 40 39 37 36 35 35 34 34 33 34 34 35 37 39 40 42 44 46 47 47
32 34 37 40 42 44 48 52 56 60 63 67 70 71 71 69 65 59 53 48 44 39 36 34 33 33 32 31 31 32 31 29 28 28 28 28 27 28 29 31 33 37 41 44
34 36 39 43 46 49 53 56 60 65 68 70 71 69 65 60 54 48 43 39 36 34 33 33 33 34 34 34 34 33 32 30 28 26 26 25 25 26 27 28 29 30 34 40
37 39 42 46 49 53 57 61 65 68 70 70 67 63 57 50 45 41 37 36 36 37 37 37 37 37 37 37 37 36 34 32 30 29 28 27 26 26 26 27 29 29 32 39
40 43 45 48 53 57 61 65 68 69 68 65 61 54 48 43 40 38 37 38 40 41 41 41 41 41 41 40 40 39 37 35 33 31 30 29 27 26 26 26 28 30 32 37
43 46 49 52 56 60 64 67 69 68 65 59 54 48 44 41 40 40 40 42 43 44 45 45 45 44 43 43 42 41 39 37 34 33 31 30 28 27 26 26 28 30 33 35
44 47 50 54 58 62 66 68 68 65 60 54 48 45 44 42 42 43 44 44 46 47 47 47 46 45 44 44 42 40 38 36 34 32 31 29 28 27 26 25 25 28 32 33
46 49 52 56 60 64 67 68 66 61 54 49 46 44 44 44 45 45 46 47 49 49 48 47 46 44 43 41 39 37 36 34 32 31 29 27 27 26 25 24 24 26 29 32
47 51 55 58 62 66 68 68 64 56 50 46 45 45 45 46 46 47 48 49 50 49 47 46 44 42 40 38 36 33 31 30 29 27 26 25 24 24 23 23 23 25 28 33
48 52 56 60 64 67 69 68 62 55 49 45 44 45 46 47 49 49 50 49 49 47 45 43 41 39 36 34 32 29 27 26 25 24 23 22 22 22 22 22 23 26 29 34
50 54 58 62 66 68 69 66 60 53 47 44 45 46 48 50 50 49 48 47 45 44 42 40 37 35 32 29 26 23 22 21 20 20 19 18 19 20 21 23 25 28 32 37
52 56 60 64 68 69 68 63 56 50 46 45 46 48 49 50 49 48 46 43 42 40 39 37 34 31 27 23 20 17 15 15 15 15 15 17 18 20 21 24 28 31 35 40
53 57 60 64 68 69 67 62 53 47 45 46 48 49 50 49 48 46 44 42 40 38 35 33 30 26 22 17 14 11 11 12 13 15 17 18 20 23 25 28 31 35 38 40
53 57 60 64 67 68 66 60 52 46 46 47 48 49 49 48 47 45 43 42 39 36 34 32 27 22 16 10 5 3 7 11 14 17 20 21 24 27 29 31 34 37 39 41
53 57 60 63 66 66 64 58 50 45 45 47 48 48 48 47 45 43 41 39 37 34 33 29 25 19 12 7 5 8 12 17 21 23 24 26 28 30 31 32 35 37 38 40
53 56 59 63 65 65 62 56 49 45 45 46 47 47 46 44 43 41 40 38 35 33 31 27 23 19 15 13 14 17 21 24 26 27 28 30 31 32 32 33 36 37 37 38
53 56 59 62 64 64 61 54 47 44 44 45 45 45 44 43 42 40 39 36 34 32 30 27 23 21 19 19 21 24 26 27 28 29 30 31 32 32 34 34 35 35 36 37
52 55 58 61 63 63 59 52 45 42 41 42 43 43 42 42 39 38 38 35 32 31 29 27 24 23 23 23 24 26 26 27 29 30 31 32 33 33 33 33 34 34 34 34
51 53 56 59 61 61 58 51 44 39 38 39 39 40 40 39 37 35 35 33 30 28 27 26 25 23 23 23 24 25 26 27 29 30 32 32 32 31 31 33 33 31 31 31
50 52 55 58 59 59 56 50 43 37 35 35 36 36 36 36 35 33 32 30 29 27 26 25 25 24 23 23 25 26 27 29 30 31 30 30 30 31 32 32 31 30 30 29
49 51 53 56 57 57 54 48 42 36 33 33 33 33 33 33 32 30 29 27 26 25 25 25 25 24 23 23 25 26 28 29 29 29 29 29 30 30 29 28 28 28 27 26
Wind_Direction
319 316 315 315 315 314 311 309 306 304 301 303 302 301 299 297 295 293 292 291 289 287 284 283 281 280 280 279 277 276 274 273 273 273 273 274 275 275 276 276 277 277 279 281
321 319 317 317 318 314 312 310 308 306 304 304 303 302 300 299 297 296 294 292 290 288 285 283 281 279 277 276 274 273 272 272 270 269 269 270 270 271 272 273 275 275 275 277
325 322 319 320 320 316 314 312 310 308 308 307 306 305 304 302 300 298 296 293 291 288 285 282 280 278 277 276 275 273 273 274 273 273 272 271 271 272 273 273 274 274 274 273
327 323 321 322 320 317 315 314 312 310 309 308 307 306 305 302 300 298 296 294 292 290 288 286 284 282 281 279 278 276 275 274 274 274 273 273 273 272 272 272 272 271 270 267
327 324 321 324 321 319 317 315 313 312 311 310 308 307 306 304 303 301 299 298 296 295 294 292 291 289 287 285 283 281 279 278 276 275 273 272 271 270 269 267 266 265 263 260
327 325 323 323 321 320 318 317 316 315 314 312 311 310 309 307 305 304 303 302 301 300 299 299 298 297 295 293 291 288 285 282 280 278 275 272 269 266 264 261 259 256 252 249
326 323 321 321 321 321 320 319 317 316 316 315 314 312 311 309 308 307 307 306 306 306 306 307 306 305 305 304 301 298 295 292 289 285 280 275 269 264 259 256 254 249 243 238
325 324 324 324 322 321 320 319 319 318 317 316 315 314 313 312 311 310 310 311 310 311 312 312 311 309 309 307 304 300 299 296 292 287 282 277 270 261 255 252 248 244 235 228
325 325 324 324 323 323 323 322 321 321 320 319 318 317 316 315 314 314 314 313 312 312 312 311 309 307 307 306 303 300 298 296 293 288 284 279 273 266 258 252 246 241 231 222
326 327 327 326 325 325 325 325 324 324 323 321 320 319 318 317 316 315 314 312 311 310 309 308 306 304 303 301 299 298 296 293 289 286 282 278 273 268 262 255 246 240 232 224
328 328 328 328 328 328 328 327 326 326 325 323 321 321 320 319 318 316 314 312 310 310 308 307 304 302 300 298 296 294 292 289 286 282 279 277 272 266 261 257 250 243 234 226
329 329 330 331 330 329 329 329 329 328 327 325 323 323 322 321 319 317 315 313 311 310 308 305 303 301 299 296 294 292 290 285 281 278 275 272 268 263 259 256 251 243 231 223
330 331 331 331 331 331 331 331 332 331 329 327 326 324 324 322 320 318 316 314 312 311 309 306 304 302 299 296 292 289 287 283 278 274 271 267 262 259 256 253 245 235 226 218
331 331 332 332 333 333 334 334 335 333 331 329 328 327 325 323 322 320 317 315 314 312 310 308 306 303 300 296 291 287 284 280 276 271 266 261 257 254 250 245 238 231 221 210
332 332 333 334 335 336 336 337 338 336 334 333 331 329 327 326 325 323 320 318 316 314 312 309 307 304 300 295 291 285 281 276 271 266 260 255 251 246 241 235 229 219 208 198
333 333 335 336 337 338 339 340 340 339 337 335 334 333 332 330 328 326 325 323 320 317 315 312 309 306 302 297 291 283 276 272 266 260 254 247 240 232 227 220 212 201 194 190
334 336 337 338 339 341 342 343 342 340 339 338 337 336 335 333 332 331 330 328 326 324 321 317 315 311 305 299 292 283 272 264 256 248 240 229 220 215 207 200 193 187 185 181
336 337 339 340 341 342 343 344 343 342 341 341 341 340 339 337 337 336 335 334 332 331 327 323 320 317 311 303 291 279 264 250 235 225 215 205 199 193 186 181 180 178 175 172
337 338 340 341 342 343 345 346 345 344 344 344 343 343 343 342 342 342 341 339 339 337 336 333 330 325 318 308 293 271 244 222 208 199 189 181 176 172 171 171 171 170 168 168
337 339 341 342 343 344 346 347 346 346 345 346 346 346 347 347 346 347 348 347 347 347 347 346 344 340 334 326 306 225 188 179 172 168 164 161 161 160 161 162 164 164 165 166
338 340 341 343 344 345 347 347 347 347 348 349 349 350 351 351 352 353 354 355 356 357 358 0 4 7 14 37 87 120 139 145 146 146 147 148 150 152 154 155 158 160 162 163
338 340 342 343 345 347 348 348 349 349 350 351 351 353 354 356 358 359 359 1 4 7 11 16 24 35 51 76 94 111 124 130 132 135 138 141 145 149 150 152 156 159 160 161
338 340 342 344 346 347 349 350 350 350 351 352 353 356 357 359 1 3 6 9 13 18 24 30 38 50 66 84 97 108 117 123 128 132 135 138 143 146 149 152 156 157 159 160
338 340 342 344 347 348 350 351 351 351 352 353 355 358 359 2 5 7 11 16 21 26 32 39 49 63 78 91 100 106 113 120 126 129 133 137 140 144 148 153 155 156 159 161
338 340 342 344 346 348 350 351 351 352 353 355 357 360 3 6 10 14 18 22 27 34 40 48 56 69 81 92 100 106 113 120 125 129 132 136 140 144 149 153 155 156 159 161
338 340 342 344 346 348 350 351 352 352 354 357 359 3 6 9 13 18 22 28 35 42 47 53 60 70 81 93 102 107 112 117 121 127 131 135 141 145 148 151 154 157 160 163
337 339 341 344 346 348 350 350 352 353 354 358 1 4 7 10 15 21 27 32 39 45 51 58 64 73 86 97 104 109 115 120 123 127 132 137 142 145 149 153 156 158 161 164
Height
5845 5842 5839 5836 5833 5829 5826 5822 5818 5814 5808 5803 5797 5792 5787 5781 5776 5770 5765 5760 5755 5750 5745 5740 5735 5730 5726 5721 5717 5714 5710 5707 5705 5703 5702 5702 5702 5702 5703 5705 5706 5707 5708 5708
5842 5838 5834 5831 5828 5824 5820 5815 5810 5804 5799 5793 5786 5780 5774 5768 5762 5756 5750 5744 5738 5732 5727 5722 5716 5711 5706 5701 5697 5692 5688 5685 5682 5680 5679 5680 5680 5682 5683 5686 5688 5690 5692 5694
5838 5833 5829 5825 5822 5816 5812 5807 5801 5795 5789 5782 5775 5768 5762 5754 5747 5740 5733 5726 5719 5712 5706 5700 5694 5688 5683 5678 5673 5668 5664 5661 5657 5656 5655 5655 5656 5658 5660 5664 5667 5671 5674 5677
5833 5829 5824 5823 5815 5810 5804 5798 5792 5785 5778 5771 5763 5756 5748 5739 5730 5722 5714 5706 5697 5689 5681 5674 5667 5660 5655 5650 5644 5640 5637 5634 5632 5631 5630 5630 5632 5634 5637 5641 5646 5650 5655 5659
5828 5823 5817 5814 5808 5801 5795 5789 5782 5774 5766 5758 5749 5741 5732 5721 5711 5701 5691 5682 5672 5663 5654 5646 5638 5631 5626 5621 5616 5612 5608 5606 5604 5604 5604 5604 5606 5609 5613 5617 5622 5628 5635 5641
5821 5817 5812 5806 5799 5791 5786 5777 5769 5761 5752 5743 5733 5724 5715 5702 5690 5678 5667 5657 5647 5638 5630 5622 5615 5608 5603 5599 5594 5590 5587 5584 5583 5581 5581 5581 5583 5586 5589 5594 5600 5606 5614 5621
5817 5811 5805 5799 5791 5784 5777 5769 5758 5748 5738 5727 5716 5705 5693 5680 5668 5656 5645 5635 5626 5618 5612 5606 5600 5594 5589 5585 5580 5576 5572 5570 5568 5567 5566 5566 5566 5568 5571 5575 5580 5586 5593 5602
5811 5804 5799 5790 5782 5775 5767 5756 5745 5734 5723 5711 5698 5685 5672 5659 5647 5637 5627 5619 5611 5605 5600 5595 5590 5584 5580 5575 5571 5567 5564 5561 5559 5557 5556 5555 5555 5556 5558 5561 5565 5570 5576 5583
5805 5799 5790 5781 5772 5763 5753 5743 5731 5719 5707 5693 5679 5666 5654 5642 5632 5623 5615 5608 5601 5596 5591 5586 5581 5575 5570 5566 5562 5558 5555 5552 5550 5549 5547 5546 5546 5547 5548 5550 5553 5557 5562 5569
5796 5788 5781 5771 5761 5752 5741 5729 5717 5703 5690 5676 5662 5650 5638 5628 5619 5612 5605 5598 5593 5587 5581 5576 5571 5565 5560 5556 5551 5548 5545 5543 5541 5539 5538 5538 5537 5537 5538 5540 5543 5546 5551 5557
5787 5780 5772 5762 5751 5740 5729 5717 5703 5689 5674 5659 5647 5636 5625 5617 5609 5602 5595 5589 5582 5576 5570 5564 5558 5553 5548 5543 5539 5535 5533 5531 5529 5528 5528 5527 5527 5528 5529 5531 5533 5536 5540 5545
5779 5771 5762 5753 5741 5729 5717 5704 5690 5675 5661 5647 5633 5623 5615 5607 5600 5592 5585 5578 5571 5564 5557 5550 5544 5539 5534 5529 5525 5521 5519 5517 5516 5516 5516 5516 5517 5517 5519 5521 5523 5526 5530 5535
5772 5763 5754 5743 5732 5719 5706 5691 5676 5661 5647 5635 5624 5614 5605 5598 5590 5582 5574 5565 5557 5550 5542 5535 5528 5523 5518 5513 5509 5506 5504 5503 5502 5503 5503 5504 5505 5507 5509 5511 5513 5517 5521 5527
5764 5755 5746 5735 5723 5709 5694 5679 5664 5649 5635 5624 5614 5606 5597 5588 5579 5570 5561 5553 5544 5535 5527 5519 5512 5507 5501 5497 5494 5491 5490 5489 5489 5489 5491 5492 5494 5496 5499 5502 5505 5509 5514 5520
5757 5747 5737 5725 5713 5699 5684 5668 5654 5640 5627 5617 5607 5597 5587 5578 5568 5559 5549 5539 5529 5520 5511 5504 5497 5491 5485 5481 5478 5476 5476 5476 5476 5477 5479 5482 5484 5486 5490 5494 5498 5503 5509 5516
5751 5740 5728 5716 5703 5689 5673 5658 5644 5631 5619 5609 5599 5589 5579 5568 5558 5547 5536 5525 5515 5505 5496 5488 5482 5476 5470 5466 5463 5462 5463 5463 5464 5466 5469 5472 5475 5478 5482 5487 5493 5498 5506 5514
5742 5732 5720 5707 5694 5679 5664 5649 5634 5622 5612 5602 5592 5582 5571 5560 5548 5537 5526 5514 5503 5493 5484 5475 5468 5462 5457 5453 5451 5450 5451 5452 5454 5457 5460 5464 5468 5473 5477 5483 5490 5497 5505 5514
5734 5723 5710 5697 5684 5671 5656 5642 5628 5616 5606 5596 5586 5575 5564 5552 5540 5528 5516 5505 5495 5484 5474 5465 5457 5451 5446 5443 5441 5441 5442 5444 5447 5451 5455 5459 5464 5470 5475 5482 5490 5498 5507 5517
5727 5715 5704 5690 5677 5663 5649 5635 5623 5611 5601 5591 5580 5569 5557 5545 5532 5521 5509 5498 5487 5477 5467 5458 5450 5443 5438 5435 5433 5434 5436 5439 5443 5447 5452 5458 5463 5470 5477 5485 5493 5502 5511 5521
5720 5709 5697 5684 5671 5657 5643 5630 5617 5607 5597 5586 5576 5564 5553 5541 5528 5517 5505 5494 5482 5472 5462 5453 5445 5438 5434 5431 5430 5431 5433 5437 5442 5447 5453 5459 5466 5473 5481 5489 5498 5507 5517 5526
5714 5703 5691 5679 5666 5651 5638 5625 5613 5603 5593 5583 5572 5561 5550 5538 5526 5514 5503 5493 5483 5472 5462 5453 5445 5439 5434 5432 5432 5433 5435 5439 5445 5451 5457 5464 5471 5479 5487 5495 5504 5513 5522 5532
5708 5697 5686 5674 5661 5647 5634 5621 5610 5600 5591 5581 5570 5560 5549 5538 5527 5516 5504 5494 5484 5475 5466 5458 5451 5445 5441 5439 5439 5440 5443 5447 5452 5458 5465 5472 5480 5487 5495 5503 5512 5520 5529 5538
5702 5691 5680 5669 5656 5643 5630 5618 5607 5598 5589 5580 5570 5560 5549 5538 5528 5518 5508 5498 5489 5480 5472 5465 5459 5454 5451 5450 5450 5451 5454 5458 5463 5469 5475 5482 5489 5496 5504 5512 5520 5528 5536 5544
5696 5686 5676 5664 5653 5640 5628 5616 5606 5597 5589 5579 5570 5561 5551 5541 5531 5522 5512 5503 5496 5488 5482 5475 5470 5467 5464 5463 5463 5465 5467 5471 5475 5480 5486 5492 5499 5506 5513 5520 5528 5535 5543 5550
5691 5682 5671 5661 5650 5638 5626 5615 5606 5597 5590 5581 5572 5563 5554 5544 5535 5527 5519 5511 5504 5498 5492 5487 5483 5479 5477 5476 5477 5478 5480 5483 5487 5491 5497 5503 5509 5516 5522 5529 5536 5543 5550 5556
5686 5677 5667 5657 5646 5635 5624 5613 5604 5597 5589 5582 5574 5566 5557 5549 5541 5534 5526 5520 5513 5507 5502 5497 5494 5491 5490 5489 5489 5491 5492 5495 5499 5503 5508 5514 5519 5525 5531 5538 5544 5550 5556 5561
5681 5672 5663 5654 5643 5632 5622 5612 5603 5596 5589 5582 5575 5568 5561 5554 5547 5540 5534 5528 5523 5518 5513 5509 5506 5503 5502 5502 5502 5504 5506 5508 5512 5515 5520 5524 5529 5535 5540 5545 5550 5555 5561 5566